Time,TemperatureF,DewpointF,PressureIn,WindDirection,WindDirectionDegrees,WindSpeedMPH,WindSpeedGustMPH,Humidity,HourlyPrecipIn,Conditions,Clouds,dailyrainin,SoftwareType,DateUTC
2013-10-09 00:00:00,60.0,35.6,29.62,NNW,337,16.0,32.0,40,0.03,,,0.00,Weather View 32 v70,2013-10-09 04:00:00,
2013-10-09 00:05:00,60.0,35.6,29.62,NNW,337,7.0,32.0,40,0.03,,,0.00,Weather View 32 v70,2013-10-09 04:05:00,
2013-10-09 00:10:00,60.0,35.6,29.64,NNW,337,22.0,32.0,40,0.03,,,0.00,Weather View 32 v70,2013-10-09 04:10:00,
2013-10-09 00:20:00,60.0,35.6,29.63,NNW,337,13.0,32.0,40,0.02,,,0.00,Weather View 32 v70,2013-10-09 04:20:00,
2013-10-09 00:25:00,60.0,35.6,29.63,NNW,337,19.0,32.0,40,0.02,,,0.00,Weather View 32 v70,2013-10-09 04:25:00,
2013-10-09 00:30:00,60.0,35.6,29.62,NNW,337,10.0,32.0,40,0.03,,,0.01,Weather View 32 v70,2013-10-09 04:30:00,
2013-10-09 00:32:00,60.0,35.6,29.62,NNW,337,10.0,32.0,40,0.03,,,0.01,Weather View 32 v70,2013-10-09 04:32:00,
2013-10-09 00:40:00,60.0,35.6,29.63,NNW,337,24.0,32.0,40,0.03,,,0.01,Weather View 32 v70,2013-10-09 04:40:00,
2013-10-09 00:45:00,60.0,35.6,29.63,NNW,337,17.0,32.0,40,0.02,,,0.01,Weather View 32 v70,2013-10-09 04:45:00,
2013-10-09 00:50:00,60.0,35.6,29.62,ENE,67,9.0,28.0,40,0.02,,,0.01,Weather View 32 v70,2013-10-09 04:50:00,
2013-10-09 01:00:00,60.0,35.6,29.60,NNW,337,13.0,28.0,40,0.01,,,0.01,Weather View 32 v70,2013-10-09 05:00:00,
2013-10-09 01:05:00,60.0,35.6,29.60,NNW,337,18.0,28.0,40,0.01,,,0.01,Weather View 32 v70,2013-10-09 05:05:00,
2013-10-09 01:10:00,60.0,35.6,29.59,NNW,337,16.0,30.0,40,0.01,,,0.01,Weather View 32 v70,2013-10-09 05:10:00,
2013-10-09 01:15:00,60.0,35.6,29.59,NNW,337,22.0,30.0,40,0.01,,,0.01,Weather View 32 v70,2013-10-09 05:15:00,
2013-10-09 01:20:00,60.0,35.6,29.59,NNW,337,15.0,30.0,40,0.01,,,0.01,Weather View 32 v70,2013-10-09 05:20:00,
2013-10-09 01:25:00,60.0,35.6,29.59,NNW,337,12.0,30.0,40,0.01,,,0.01,Weather View 32 v70,2013-10-09 05:25:00,
2013-10-09 01:30:00,60.0,35.6,29.61,NNW,337,15.0,30.0,40,0.00,,,0.01,Weather View 32 v70,2013-10-09 05:30:00,
2013-10-09 01:40:00,60.0,35.6,29.61,NNW,337,19.0,30.0,40,0.00,,,0.01,Weather View 32 v70,2013-10-09 05:40:00,
2013-10-09 01:45:00,60.0,35.6,29.61,NNW,337,19.0,30.0,40,0.00,,,0.01,Weather View 32 v70,2013-10-09 05:45:00,
2013-10-09 01:50:00,60.0,36.2,29.61,NNW,337,11.0,30.0,41,0.01,,,0.02,Weather View 32 v70,2013-10-09 05:50:00,
2013-10-09 02:00:00,60.0,36.2,29.60,NNW,337,9.0,30.0,41,0.01,,,0.02,Weather View 32 v70,2013-10-09 06:00:00,
2013-10-09 02:05:00,60.0,36.2,29.60,NNW,337,19.0,30.0,41,0.01,,,0.02,Weather View 32 v70,2013-10-09 06:05:00,
2013-10-09 02:10:00,60.0,36.8,29.60,NNW,337,12.0,29.0,42,0.01,,,0.02,Weather View 32 v70,2013-10-09 06:10:00,
2013-10-09 02:15:00,60.0,36.8,29.60,NNW,337,13.0,29.0,42,0.01,,,0.02,Weather View 32 v70,2013-10-09 06:15:00,
2013-10-09 02:20:00,60.0,36.8,29.61,NNW,337,20.0,29.0,42,0.01,,,0.02,Weather View 32 v70,2013-10-09 06:20:00,
2013-10-09 02:25:00,61.0,37.7,29.61,NNW,337,20.0,29.0,42,0.01,,,0.02,Weather View 32 v70,2013-10-09 06:25:00,
2013-10-09 02:30:00,61.0,37.7,29.60,NNW,337,8.0,29.0,42,0.01,,,0.02,Weather View 32 v70,2013-10-09 06:30:00,
2013-10-09 02:35:00,61.0,37.7,29.60,NNW,337,20.0,29.0,42,0.01,,,0.02,Weather View 32 v70,2013-10-09 06:35:00,
2013-10-09 02:40:00,61.0,37.7,29.57,NNW,337,14.0,30.0,42,0.01,,,0.02,Weather View 32 v70,2013-10-09 06:40:00,
2013-10-09 02:45:00,61.0,38.3,29.57,NNW,337,19.0,30.0,43,0.01,,,0.02,Weather View 32 v70,2013-10-09 06:45:00,
2013-10-09 02:50:00,61.0,38.3,29.57,NNW,337,6.0,32.0,43,0.00,,,0.02,Weather View 32 v70,2013-10-09 06:50:00,
2013-10-09 02:55:00,61.0,38.9,29.57,NNW,337,15.0,32.0,44,0.00,,,0.02,Weather View 32 v70,2013-10-09 06:55:00,
2013-10-09 03:00:00,61.0,38.3,29.58,NNW,337,19.0,32.0,43,0.00,,,0.02,Weather View 32 v70,2013-10-09 07:00:00,
2013-10-09 03:10:00,61.0,38.9,29.57,NNW,337,16.0,32.0,44,0.00,,,0.02,Weather View 32 v70,2013-10-09 07:10:00,
2013-10-09 03:15:00,60.0,38.0,29.57,NNW,337,13.0,32.0,44,0.00,,,0.02,Weather View 32 v70,2013-10-09 07:15:00,
2013-10-09 03:20:00,61.0,38.9,29.58,NNW,337,22.0,32.0,44,0.00,,,0.02,Weather View 32 v70,2013-10-09 07:20:00,
2013-10-09 06:50:00,60.0,38.5,29.59,NNW,337,12.0,20.0,45,0.00,,,0.02,Weather View 32 v70,2013-10-09 10:50:00,
2013-10-09 07:00:00,60.0,38.5,29.57,NNW,337,16.0,26.0,45,0.00,,,0.02,Weather View 32 v70,2013-10-09 11:00:00,
2013-10-09 07:05:00,60.0,39.1,29.57,NNW,337,15.0,26.0,46,0.00,,,0.02,Weather View 32 v70,2013-10-09 11:05:00,
2013-10-09 07:10:00,60.0,38.5,29.58,NNW,337,20.0,26.0,45,0.00,,,0.02,Weather View 32 v70,2013-10-09 11:10:00,
2013-10-09 07:15:00,60.0,39.1,29.58,NNW,337,9.0,26.0,46,0.00,,,0.02,Weather View 32 v70,2013-10-09 11:15:00,
2013-10-09 07:20:00,60.0,38.5,29.59,NNW,337,17.0,26.0,45,0.00,,,0.02,Weather View 32 v70,2013-10-09 11:20:00,
2013-10-09 07:25:00,60.0,39.7,29.59,NNW,337,20.0,26.0,47,0.00,,,0.02,Weather View 32 v70,2013-10-09 11:25:00,
2013-10-09 07:30:00,60.0,39.1,29.60,NNW,337,23.0,26.0,46,0.00,,,0.02,Weather View 32 v70,2013-10-09 11:30:00,
2013-10-09 07:35:00,60.0,39.7,29.60,NNW,337,12.0,27.0,47,0.00,,,0.02,Weather View 32 v70,2013-10-09 11:35:00,
2013-10-09 07:45:00,60.0,39.7,29.57,NNW,337,13.0,27.0,47,0.00,,,0.02,Weather View 32 v70,2013-10-09 11:45:00,
2013-10-09 07:50:00,60.0,38.5,29.57,NNW,337,22.0,27.0,45,0.00,,,0.02,Weather View 32 v70,2013-10-09 11:50:00,
2013-10-09 07:55:00,60.0,39.7,29.57,NNW,337,16.0,27.0,47,0.00,,,0.02,Weather View 32 v70,2013-10-09 11:55:00,
2013-10-09 08:00:00,60.0,38.5,29.61,NNW,337,22.0,27.0,45,0.00,,,0.02,Weather View 32 v70,2013-10-09 12:00:00,
2013-10-09 08:05:00,60.0,39.1,29.61,NNW,337,19.0,27.0,46,0.00,,,0.02,Weather View 32 v70,2013-10-09 12:05:00,
2013-10-09 08:10:00,60.0,38.5,29.59,NNW,337,16.0,27.0,45,0.00,,,0.02,Weather View 32 v70,2013-10-09 12:10:00,
2013-10-09 08:15:00,60.0,39.1,29.59,NNW,337,16.0,27.0,46,0.00,,,0.02,Weather View 32 v70,2013-10-09 12:15:00,
2013-10-09 08:25:00,60.0,39.1,29.59,NNW,337,22.0,29.0,46,0.00,,,0.02,Weather View 32 v70,2013-10-09 12:25:00,
2013-10-09 08:30:00,60.0,38.5,29.59,NNW,337,16.0,29.0,45,0.00,,,0.02,Weather View 32 v70,2013-10-09 12:30:00,
2013-10-09 08:35:00,60.0,38.5,29.59,NNW,337,11.0,29.0,45,0.00,,,0.02,Weather View 32 v70,2013-10-09 12:35:00,
2013-10-09 08:40:00,60.0,38.0,29.60,NNW,337,16.0,29.0,44,0.00,,,0.02,Weather View 32 v70,2013-10-09 12:40:00,
2013-10-09 08:45:00,60.0,38.5,29.60,NNW,337,15.0,29.0,45,0.00,,,0.02,Weather View 32 v70,2013-10-09 12:45:00,
2013-10-09 08:50:00,60.0,38.0,29.58,NNW,337,19.0,29.0,44,0.00,,,0.02,Weather View 32 v70,2013-10-09 12:50:00,
2013-10-09 08:55:00,60.0,38.5,29.58,NNW,337,12.0,29.0,45,0.00,,,0.02,Weather View 32 v70,2013-10-09 12:55:00,
2013-10-09 09:00:00,59.0,36.5,29.59,NNW,337,15.0,29.0,43,0.00,,,0.02,Weather View 32 v70,2013-10-09 13:00:00,
2013-10-09 09:10:00,60.0,38.0,29.59,NNW,337,16.0,29.0,44,0.00,,,0.02,Weather View 32 v70,2013-10-09 13:10:00,
2013-10-09 09:15:00,60.0,38.0,29.59,NNW,337,14.0,32.0,44,0.00,,,0.02,Weather View 32 v70,2013-10-09 13:15:00,
2013-10-09 09:20:00,60.0,38.0,29.59,NNW,337,16.0,32.0,44,0.00,,,0.02,Weather View 32 v70,2013-10-09 13:20:00,
2013-10-09 09:25:00,60.0,38.0,29.59,NNW,337,6.0,32.0,44,0.00,,,0.02,Weather View 32 v70,2013-10-09 13:25:00,
2013-10-09 09:30:00,60.0,38.0,29.59,NNW,337,23.0,32.0,44,0.00,,,0.02,Weather View 32 v70,2013-10-09 13:30:00,
2013-10-09 09:35:00,60.0,38.5,29.59,NNW,337,19.0,32.0,45,0.00,,,0.02,Weather View 32 v70,2013-10-09 13:35:00,
2013-10-09 09:40:00,60.0,38.0,29.58,NNW,337,17.0,32.0,44,0.00,,,0.02,Weather View 32 v70,2013-10-09 13:40:00,
2013-10-09 09:45:00,60.0,38.5,29.58,NNW,337,20.0,32.0,45,0.00,,,0.02,Weather View 32 v70,2013-10-09 13:45:00,
2013-10-09 09:50:00,60.0,38.5,29.58,NNW,337,20.0,32.0,45,0.00,,,0.02,Weather View 32 v70,2013-10-09 13:50:00,
2013-10-09 10:00:00,60.0,38.5,29.59,NNW,337,18.0,32.0,45,0.00,,,0.02,Weather View 32 v70,2013-10-09 14:00:00,
2013-10-09 10:05:00,60.0,38.5,29.59,NNW,337,23.0,32.0,45,0.00,,,0.02,Weather View 32 v70,2013-10-09 14:05:00,
2013-10-09 10:10:00,61.0,39.5,29.59,NNW,337,17.0,32.0,45,0.00,,,0.02,Weather View 32 v70,2013-10-09 14:10:00,
2013-10-09 10:15:00,61.0,40.6,29.59,NNW,337,20.0,31.0,47,0.00,,,0.02,Weather View 32 v70,2013-10-09 14:15:00,
2013-10-09 10:20:00,61.0,40.0,29.59,NNW,337,25.0,31.0,46,0.00,,,0.02,Weather View 32 v70,2013-10-09 14:20:00,
2013-10-09 10:25:00,61.0,40.6,29.59,NNW,337,14.0,31.0,47,0.00,,,0.02,Weather View 32 v70,2013-10-09 14:25:00,
2013-10-09 10:30:00,61.0,40.6,29.58,NNW,337,18.0,31.0,47,0.00,,,0.02,Weather View 32 v70,2013-10-09 14:30:00,
2013-10-09 10:35:00,61.0,41.7,29.58,NNW,337,23.0,31.0,49,0.00,,,0.02,Weather View 32 v70,2013-10-09 14:35:00,
2013-10-09 10:45:00,62.0,43.1,29.59,NNW,337,23.0,31.0,50,0.00,,,0.02,Weather View 32 v70,2013-10-09 14:45:00,
2013-10-09 10:50:00,62.0,42.0,29.60,NNW,337,22.0,31.0,48,0.00,,,0.02,Weather View 32 v70,2013-10-09 14:50:00,
2013-10-09 10:55:00,62.0,43.1,29.60,NNW,337,22.0,31.0,50,0.00,,,0.02,Weather View 32 v70,2013-10-09 14:55:00,
2013-10-09 11:00:00,62.0,42.6,29.57,NNW,337,20.0,31.0,49,0.00,,,0.02,Weather View 32 v70,2013-10-09 15:00:00,
2013-10-09 11:05:00,62.0,43.6,29.57,NNW,337,24.0,34.0,51,0.00,,,0.02,Weather View 32 v70,2013-10-09 15:05:00,
2013-10-09 11:10:00,62.0,43.1,29.56,NNW,337,25.0,34.0,50,0.00,,,0.02,Weather View 32 v70,2013-10-09 15:10:00,
2013-10-09 11:15:00,62.0,44.6,29.56,NNW,337,22.0,34.0,53,0.00,,,0.02,Weather View 32 v70,2013-10-09 15:15:00,
2013-10-09 11:25:00,63.0,46.1,29.58,NNW,337,25.0,34.0,54,0.00,,,0.02,Weather View 32 v70,2013-10-09 15:25:00,
2013-10-09 11:30:00,63.0,45.6,29.58,NNW,337,19.0,34.0,53,0.00,,,0.02,Weather View 32 v70,2013-10-09 15:30:00,
2013-10-09 11:35:00,63.0,46.1,29.58,NNW,337,21.0,34.0,54,0.00,,,0.02,Weather View 32 v70,2013-10-09 15:35:00,
2013-10-09 11:40:00,63.0,45.6,29.59,NNW,337,12.0,34.0,53,0.00,,,0.02,Weather View 32 v70,2013-10-09 15:40:00,
2013-10-09 11:45:00,63.0,46.5,29.59,NNW,337,20.0,34.0,55,0.01,,,0.03,Weather View 32 v70,2013-10-09 15:45:00,
2013-10-09 11:50:00,63.0,46.1,29.57,NNW,337,23.0,34.0,54,0.01,,,0.03,Weather View 32 v70,2013-10-09 15:50:00,
2013-10-09 12:00:00,63.0,46.1,29.58,NNW,337,20.0,34.0,54,0.01,,,0.03,Weather View 32 v70,2013-10-09 16:00:00,
2013-10-09 12:05:00,63.0,46.5,29.58,NNW,337,13.0,34.0,55,0.01,,,0.03,Weather View 32 v70,2013-10-09 16:05:00,
2013-10-09 12:10:00,63.0,46.1,29.55,NNW,337,25.0,34.0,54,0.01,,,0.03,Weather View 32 v70,2013-10-09 16:10:00,
2013-10-09 12:15:00,63.0,46.5,29.55,NNW,337,16.0,34.0,55,0.01,,,0.03,Weather View 32 v70,2013-10-09 16:15:00,
2013-10-09 12:20:00,63.0,45.6,29.56,NNW,337,25.0,34.0,53,0.01,,,0.03,Weather View 32 v70,2013-10-09 16:20:00,
2013-10-09 12:25:00,63.0,46.1,29.56,NNW,337,26.0,36.0,54,0.01,,,0.03,Weather View 32 v70,2013-10-09 16:25:00,
2013-10-09 12:30:00,63.0,45.1,29.56,NNW,337,16.0,36.0,52,0.01,,,0.03,Weather View 32 v70,2013-10-09 16:30:00,
2013-10-09 12:35:00,63.0,46.1,29.56,NNW,337,22.0,36.0,54,0.01,,,0.03,Weather View 32 v70,2013-10-09 16:35:00,
2013-10-09 12:40:00,63.0,45.1,29.56,NNW,337,22.0,36.0,52,0.01,,,0.03,Weather View 32 v70,2013-10-09 16:40:00,
2013-10-09 12:50:00,63.0,45.1,29.56,NNW,337,29.0,36.0,52,0.00,,,0.03,Weather View 32 v70,2013-10-09 16:50:00,
2013-10-09 12:55:00,62.0,45.1,29.56,NNW,337,26.0,37.0,54,0.00,,,0.03,Weather View 32 v70,2013-10-09 16:55:00,
2013-10-09 13:00:00,63.0,45.1,29.55,NNW,337,32.0,37.0,52,0.00,,,0.03,Weather View 32 v70,2013-10-09 17:00:00,
2013-10-09 13:10:00,63.0,44.0,29.55,NNW,337,19.0,37.0,50,0.00,,,0.03,Weather View 32 v70,2013-10-09 17:10:00,
2013-10-09 13:15:00,63.0,45.1,29.55,NNW,337,25.0,37.0,52,0.00,,,0.03,Weather View 32 v70,2013-10-09 17:15:00,
2013-10-09 13:20:00,63.0,43.5,29.58,NNW,337,15.0,37.0,49,0.00,,,0.03,Weather View 32 v70,2013-10-09 17:20:00,
2013-10-09 13:25:00,63.0,45.1,29.58,NNW,337,9.0,37.0,52,0.00,,,0.03,Weather View 32 v70,2013-10-09 17:25:00,
2013-10-09 13:30:00,63.0,44.0,29.57,NNW,337,20.0,37.0,50,0.00,,,0.03,Weather View 32 v70,2013-10-09 17:30:00,
2013-10-09 13:40:00,63.0,43.5,29.53,NNW,337,22.0,37.0,49,0.00,,,0.03,Weather View 32 v70,2013-10-09 17:40:00,
2013-10-09 13:45:00,63.0,45.1,29.53,NNW,337,23.0,37.0,52,0.00,,,0.03,Weather View 32 v70,2013-10-09 17:45:00,
2013-10-09 13:50:00,63.0,44.0,29.55,NNW,337,15.0,37.0,50,0.00,,,0.03,Weather View 32 v70,2013-10-09 17:50:00,
2013-10-09 13:55:00,63.0,45.1,29.55,NNW,337,30.0,37.0,52,0.00,,,0.03,Weather View 32 v70,2013-10-09 17:55:00,
2013-10-09 14:00:00,63.0,44.5,29.55,NNW,337,23.0,38.0,51,0.00,,,0.03,Weather View 32 v70,2013-10-09 18:00:00,
2013-10-09 14:05:00,63.0,45.1,29.55,NNW,337,25.0,38.0,52,0.00,,,0.03,Weather View 32 v70,2013-10-09 18:05:00,
2013-10-09 14:15:00,63.0,45.1,29.55,NNW,337,23.0,38.0,52,0.00,,,0.03,Weather View 32 v70,2013-10-09 18:15:00,
2013-10-09 14:20:00,63.0,43.5,29.54,NNW,337,26.0,38.0,49,0.00,,,0.03,Weather View 32 v70,2013-10-09 18:20:00,
2013-10-09 14:25:00,62.0,43.1,29.54,NNW,337,23.0,38.0,50,0.00,,,0.03,Weather View 32 v70,2013-10-09 18:25:00,
2013-10-09 14:30:00,62.0,41.5,29.53,NNW,337,23.0,38.0,47,0.00,,,0.03,Weather View 32 v70,2013-10-09 18:30:00,
2013-10-09 14:35:00,62.0,42.6,29.53,NNW,337,14.0,38.0,49,0.00,,,0.03,Weather View 32 v70,2013-10-09 18:35:00,
2013-10-09 14:40:00,62.0,42.0,29.52,NNW,337,28.0,38.0,48,0.00,,,0.03,Weather View 32 v70,2013-10-09 18:40:00,
2013-10-09 14:45:00,63.0,44.0,29.52,NNW,337,12.0,38.0,50,0.00,,,0.03,Weather View 32 v70,2013-10-09 18:45:00,
2013-10-09 14:50:00,62.0,42.6,29.54,NNW,337,17.0,38.0,49,0.00,,,0.03,Weather View 32 v70,2013-10-09 18:50:00,
2013-10-09 14:55:00,63.0,44.0,29.54,NNW,337,16.0,38.0,50,0.00,,,0.03,Weather View 32 v70,2013-10-09 18:55:00,
2013-10-09 15:05:00,62.0,44.1,29.52,NNW,337,18.0,37.0,52,0.00,,,0.03,Weather View 32 v70,2013-10-09 19:05:00,
2013-10-09 15:10:00,62.0,42.6,29.53,NNW,337,20.0,37.0,49,0.00,,,0.03,Weather View 32 v70,2013-10-09 19:10:00,
2013-10-09 15:15:00,62.0,43.6,29.53,NNW,337,29.0,37.0,51,0.00,,,0.03,Weather View 32 v70,2013-10-09 19:15:00,
2013-10-09 15:20:00,62.0,42.6,29.54,NNW,337,30.0,35.0,49,0.00,,,0.03,Weather View 32 v70,2013-10-09 19:20:00,
2013-10-09 15:25:00,62.0,43.6,29.54,NNW,337,20.0,35.0,51,0.00,,,0.03,Weather View 32 v70,2013-10-09 19:25:00,
2013-10-09 15:30:00,62.0,42.6,29.53,NNW,337,19.0,35.0,49,0.00,,,0.03,Weather View 32 v70,2013-10-09 19:30:00,
2013-10-09 15:35:00,62.0,43.1,29.53,NNW,337,28.0,35.0,50,0.00,,,0.03,Weather View 32 v70,2013-10-09 19:35:00,
2013-10-09 15:45:00,62.0,43.1,29.53,NNW,337,17.0,35.0,50,0.00,,,0.03,Weather View 32 v70,2013-10-09 19:45:00,
2013-10-09 15:52:00,62.0,42.0,29.52,NNW,337,13.0,35.0,48,0.00,,,0.03,Weather View 32 v70,2013-10-09 19:52:00,
2013-10-09 16:00:00,62.0,42.6,29.52,NNW,337,19.0,34.0,49,0.00,,,0.03,Weather View 32 v70,2013-10-09 20:00:00,
2013-10-09 16:05:00,62.0,43.1,29.52,NNW,337,25.0,34.0,50,0.00,,,0.03,Weather View 32 v70,2013-10-09 20:05:00,
2013-10-09 16:15:00,62.0,43.1,29.53,NNW,337,22.0,39.0,50,0.00,,,0.03,Weather View 32 v70,2013-10-09 20:15:00,
2013-10-09 16:20:00,62.0,42.0,29.51,NNW,337,25.0,39.0,48,0.00,,,0.03,Weather View 32 v70,2013-10-09 20:20:00,
2013-10-09 16:25:00,62.0,43.1,29.51,NNW,337,22.0,39.0,50,0.00,,,0.03,Weather View 32 v70,2013-10-09 20:25:00,
2013-10-09 16:30:00,62.0,42.0,29.53,NNW,337,16.0,39.0,48,0.00,,,0.03,Weather View 32 v70,2013-10-09 20:30:00,
2013-10-09 16:35:00,62.0,43.1,29.53,NNW,337,23.0,39.0,50,0.00,,,0.03,Weather View 32 v70,2013-10-09 20:35:00,
2013-10-09 16:40:00,62.0,42.0,29.53,NNW,337,23.0,39.0,48,0.00,,,0.03,Weather View 32 v70,2013-10-09 20:40:00,
2013-10-09 16:50:00,62.0,42.6,29.53,NNW,337,19.0,39.0,49,0.00,,,0.03,Weather View 32 v70,2013-10-09 20:50:00,
2013-10-09 16:55:00,62.0,43.1,29.53,NNW,337,13.0,39.0,50,0.00,,,0.03,Weather View 32 v70,2013-10-09 20:55:00,
2013-10-09 17:05:00,62.0,43.6,29.51,NNW,337,21.0,39.0,51,0.00,,,0.03,Weather View 32 v70,2013-10-09 21:05:00,
2013-10-09 17:10:00,62.0,42.6,29.54,NNW,337,22.0,38.0,49,0.00,,,0.03,Weather View 32 v70,2013-10-09 21:10:00,
2013-10-09 17:15:00,62.0,43.1,29.54,NNW,337,22.0,38.0,50,0.00,,,0.03,Weather View 32 v70,2013-10-09 21:15:00,
2013-10-09 17:20:00,62.0,42.6,29.55,NNW,337,20.0,37.0,49,0.00,,,0.03,Weather View 32 v70,2013-10-09 21:20:00,
2013-10-09 17:30:00,62.0,42.6,29.53,NNW,337,17.0,37.0,49,0.00,,,0.03,Weather View 32 v70,2013-10-09 21:30:00,
2013-10-09 17:35:00,61.0,42.2,29.53,NNW,337,23.0,35.0,50,0.00,,,0.03,Weather View 32 v70,2013-10-09 21:35:00,
2013-10-09 17:40:00,61.0,40.6,29.53,NNW,337,25.0,35.0,47,0.00,,,0.03,Weather View 32 v70,2013-10-09 21:40:00,
2013-10-09 17:45:00,61.0,41.1,29.53,NNW,337,20.0,35.0,48,0.00,,,0.03,Weather View 32 v70,2013-10-09 21:45:00,
2013-10-09 17:50:00,61.0,40.6,29.51,NNW,337,21.0,36.0,47,0.00,,,0.03,Weather View 32 v70,2013-10-09 21:50:00,
2013-10-09 17:55:00,61.0,41.7,29.51,NNW,337,23.0,36.0,49,0.00,,,0.03,Weather View 32 v70,2013-10-09 21:55:00,
2013-10-09 18:05:00,61.0,41.7,29.55,NNW,337,26.0,36.0,49,0.00,,,0.03,Weather View 32 v70,2013-10-09 22:05:00,
2013-10-09 18:10:00,62.0,42.6,29.55,NNW,337,14.0,36.0,49,0.00,,,0.03,Weather View 32 v70,2013-10-09 22:10:00,
2013-10-09 18:15:00,62.0,43.1,29.55,NNW,337,16.0,36.0,50,0.00,,,0.03,Weather View 32 v70,2013-10-09 22:15:00,
2013-10-09 18:20:00,62.0,43.1,29.53,NNW,337,12.0,36.0,50,0.00,,,0.03,Weather View 32 v70,2013-10-09 22:20:00,
2013-10-09 18:30:00,62.0,43.6,29.52,NNW,337,28.0,36.0,51,0.00,,,0.03,Weather View 32 v70,2013-10-09 22:30:00,
2013-10-09 18:35:00,62.0,44.6,29.52,NNW,337,25.0,36.0,53,0.00,,,0.03,Weather View 32 v70,2013-10-09 22:35:00,
2013-10-09 18:45:00,62.0,45.1,29.53,NNW,337,22.0,36.0,54,0.00,,,0.03,Weather View 32 v70,2013-10-09 22:45:00,
2013-10-09 18:50:00,62.0,45.1,29.50,NNW,337,23.0,36.0,54,0.00,,,0.03,Weather View 32 v70,2013-10-09 22:50:00,
2013-10-09 18:55:00,62.0,45.6,29.50,NNW,337,12.0,36.0,55,0.00,,,0.03,Weather View 32 v70,2013-10-09 22:55:00,
2013-10-09 19:00:00,62.0,45.1,29.51,NNW,337,18.0,36.0,54,0.00,,,0.03,Weather View 32 v70,2013-10-09 23:00:00,
2013-10-09 19:05:00,62.0,45.6,29.51,NNW,337,26.0,36.0,55,0.00,,,0.03,Weather View 32 v70,2013-10-09 23:05:00,
2013-10-09 19:10:00,62.0,45.1,29.52,NNW,337,19.0,36.0,54,0.00,,,0.03,Weather View 32 v70,2013-10-09 23:10:00,
2013-10-09 19:20:00,62.0,45.6,29.54,NNW,337,21.0,38.0,55,0.00,,,0.03,Weather View 32 v70,2013-10-09 23:20:00,
2013-10-09 19:25:00,62.0,45.6,29.54,NNW,337,16.0,38.0,55,0.00,,,0.03,Weather View 32 v70,2013-10-09 23:25:00,
2013-10-09 19:30:00,62.0,45.6,29.52,NNW,337,20.0,38.0,55,0.00,,,0.03,Weather View 32 v70,2013-10-09 23:30:00,
2013-10-09 19:35:00,62.0,46.1,29.52,NNW,337,18.0,38.0,56,0.00,,,0.03,Weather View 32 v70,2013-10-09 23:35:00,
2013-10-09 19:40:00,62.0,45.6,29.52,NNW,337,14.0,38.0,55,0.00,,,0.03,Weather View 32 v70,2013-10-09 23:40:00,
2013-10-09 19:45:00,61.0,45.2,29.52,NNW,337,22.0,38.0,56,0.00,,,0.03,Weather View 32 v70,2013-10-09 23:45:00,
2013-10-09 19:50:00,61.0,44.7,29.53,NNW,337,19.0,38.0,55,0.00,,,0.03,Weather View 32 v70,2013-10-09 23:50:00,
2013-10-09 19:55:00,61.0,45.2,29.53,NNW,337,24.0,38.0,56,0.00,,,0.03,Weather View 32 v70,2013-10-09 23:55:00,
2013-10-09 20:00:00,61.0,44.7,29.54,NNW,337,16.0,38.0,55,0.00,,,0.03,Weather View 32 v70,2013-10-10 00:00:00,
2013-10-09 20:05:00,61.0,45.2,29.54,NNW,337,24.0,38.0,56,0.00,,,0.03,Weather View 32 v70,2013-10-10 00:05:00,
2013-10-09 20:10:00,61.0,44.7,29.52,NNW,337,17.0,38.0,55,0.00,,,0.03,Weather View 32 v70,2013-10-10 00:10:00,
2013-10-09 20:20:00,61.0,44.2,29.53,NNW,337,20.0,37.0,54,0.00,,,0.03,Weather View 32 v70,2013-10-10 00:20:00,
2013-10-09 20:25:00,61.0,44.7,29.53,NNW,337,12.0,37.0,55,0.00,,,0.03,Weather View 32 v70,2013-10-10 00:25:00,
2013-10-09 20:30:00,61.0,44.2,29.54,NNW,337,13.0,37.0,54,0.00,,,0.03,Weather View 32 v70,2013-10-10 00:30:00,
2013-10-09 20:35:00,61.0,44.2,29.54,NNW,337,21.0,38.0,54,0.00,,,0.03,Weather View 32 v70,2013-10-10 00:35:00,
2013-10-09 20:40:00,61.0,43.7,29.53,NNW,337,22.0,38.0,53,0.00,,,0.03,Weather View 32 v70,2013-10-10 00:40:00,
2013-10-09 20:45:00,61.0,44.2,29.53,NNW,337,24.0,38.0,54,0.00,,,0.03,Weather View 32 v70,2013-10-10 00:45:00,
2013-10-09 20:50:00,61.0,43.2,29.52,NNW,337,17.0,38.0,52,0.00,,,0.03,Weather View 32 v70,2013-10-10 00:50:00,
2013-10-09 20:55:00,60.0,42.3,29.52,NNW,337,22.0,38.0,52,0.00,,,0.03,Weather View 32 v70,2013-10-10 00:55:00,
2013-10-09 21:05:00,60.0,41.8,29.54,NNW,337,17.0,38.0,51,0.00,,,0.03,Weather View 32 v70,2013-10-10 01:05:00,
2013-10-09 21:10:00,60.0,41.3,29.53,NNW,337,17.0,38.0,50,0.00,,,0.03,Weather View 32 v70,2013-10-10 01:10:00,
2013-10-09 21:20:00,60.0,41.3,29.55,NNW,337,19.0,38.0,50,0.00,,,0.03,Weather View 32 v70,2013-10-10 01:20:00,
2013-10-09 21:25:00,60.0,42.3,29.55,NNW,337,22.0,38.0,52,0.00,,,0.03,Weather View 32 v70,2013-10-10 01:25:00,
2013-10-09 21:30:00,60.0,42.3,29.53,NNW,337,26.0,38.0,52,0.00,,,0.03,Weather View 32 v70,2013-10-10 01:30:00,
2013-10-09 21:35:00,60.0,42.8,29.53,NNW,337,22.0,35.0,53,0.00,,,0.03,Weather View 32 v70,2013-10-10 01:35:00,
2013-10-09 21:45:00,60.0,43.3,29.53,NNW,337,19.0,35.0,54,0.00,,,0.03,Weather View 32 v70,2013-10-10 01:45:00,
2013-10-09 21:50:00,61.0,43.7,29.53,NNW,337,15.0,35.0,53,0.00,,,0.03,Weather View 32 v70,2013-10-10 01:50:00,
2013-10-09 21:55:00,61.0,44.2,29.53,NNW,337,14.0,35.0,54,0.00,,,0.03,Weather View 32 v70,2013-10-10 01:55:00,
2013-10-09 22:05:00,60.0,42.8,29.53,NNW,337,23.0,35.0,53,0.00,,,0.03,Weather View 32 v70,2013-10-10 02:05:00,
2013-10-09 22:15:00,60.0,41.3,29.55,NNW,337,17.0,35.0,50,0.00,,,0.03,Weather View 32 v70,2013-10-10 02:15:00,
2013-10-09 22:20:00,60.0,40.7,29.53,NNW,337,23.0,35.0,49,0.00,,,0.03,Weather View 32 v70,2013-10-10 02:20:00,
2013-10-09 22:25:00,60.0,40.2,29.53,NNW,337,15.0,35.0,48,0.00,,,0.03,Weather View 32 v70,2013-10-10 02:25:00,
2013-10-09 22:30:00,60.0,39.7,29.54,NNW,337,19.0,35.0,47,0.00,,,0.03,Weather View 32 v70,2013-10-10 02:30:00,
2013-10-09 22:40:00,60.0,38.5,29.54,NNW,337,20.0,35.0,45,0.00,,,0.03,Weather View 32 v70,2013-10-10 02:40:00,
2013-10-09 22:45:00,60.0,39.1,29.54,NNW,337,17.0,35.0,46,0.00,,,0.03,Weather View 32 v70,2013-10-10 02:45:00,
2013-10-09 22:50:00,59.0,37.1,29.54,NNW,337,21.0,34.0,44,0.00,,,0.03,Weather View 32 v70,2013-10-10 02:50:00,
2013-10-09 22:55:00,59.0,37.1,29.54,NNW,337,13.0,34.0,44,0.00,,,0.03,Weather View 32 v70,2013-10-10 02:55:00,
2013-10-09 23:05:00,59.0,37.1,29.54,NNW,337,27.0,35.0,44,0.00,,,0.03,Weather View 32 v70,2013-10-10 03:05:00,
2013-10-09 23:10:00,59.0,37.1,29.54,NNW,337,29.0,35.0,44,0.00,,,0.03,Weather View 32 v70,2013-10-10 03:10:00,
2013-10-09 23:20:00,59.0,37.1,29.53,NNW,337,22.0,35.0,44,0.00,,,0.03,Weather View 32 v70,2013-10-10 03:20:00,
2013-10-09 23:30:00,59.0,37.1,29.55,NNW,337,20.0,35.0,44,0.00,,,0.03,Weather View 32 v70,2013-10-10 03:30:00,
2013-10-09 23:35:00,59.0,37.6,29.55,NNW,337,13.0,35.0,45,0.00,,,0.03,Weather View 32 v70,2013-10-10 03:35:00,
2013-10-09 23:40:00,59.0,37.6,29.53,NNW,337,9.0,35.0,45,0.00,,,0.03,Weather View 32 v70,2013-10-10 03:40:00,
2013-10-09 23:45:00,59.0,38.2,29.53,NNW,337,26.0,35.0,46,0.00,,,0.03,Weather View 32 v70,2013-10-10 03:45:00,
2013-10-09 23:50:00,59.0,38.2,29.53,NNW,337,15.0,35.0,46,0.00,,,0.03,Weather View 32 v70,2013-10-10 03:50:00,
2013-10-09 23:55:00,59.0,38.8,29.53,NNW,337,16.0,35.0,47,0.00,,,0.03,Weather View 32 v70,2013-10-10 03:55:00,